User: anonymous   Login
Location: Chiroubles
(46.1812°N, 4.6660°E)
Time: 06:34:29
(UTC+00:00)
Language:

FALCON 9 DEB - Orbit

View from above orbital plane
View from above orbital plane
View from above satellite
View from above satellite

Ground track
Ground track

The orbit data is extracted from the following two-line orbital elements,

1 44295U 19029BN  20299.93504615 +.00004543 +00000-0 +10622-3 0  9990
2 44295 053.0008 218.8778 0010689 119.1833 241.0242 15.44248295081652
Epoch (UTC): 25 October 2020 22:26:27
Eccentricity: 0.0010689
inclination: 53.0008°
perigee height: 426 km
apogee height: 441 km
right ascension of ascending node: 218.8778°
argument of perigee: 119.1833°
revolutions per day: 15.44248295
mean anomaly at epoch: 241.0242°
orbit number at epoch: 8165

The dashed part of the orbit path shows where the satellite is in the earth's shadow,  

DLR